#timestamp,LO_Frequency,Hit,StdDev 
1562166015.9,286047010.1,N
1562166035.7,286047012.8,N
1562166055.5,286047015.3,N
1562166075.4,286047014.5,N
1562166095.2,286047016.3,N
1562166115.0,286047016.7,N
1562166115.9,286047016.7,N
1562166135.8,286047010.4,N
1562166155.6,286047002.0,N
1562166175.5,286046995.8,N
1562166195.3,286046992.3,N
1562166215.1,286046991.9,N
1562166235.9,286046987.8,N
1562166255.7,286046985.0,N
1562166275.6,286046983.5,N
1562166295.4,286046978.9,N
1562166315.2,286046986.7,N
1562166335.1,286046988.1,N
1562166336.0,286046988.1,N
1562166355.8,286046997.5,N
1562166375.6,286046994.3,N
1562166395.5,286046995.4,N
1562166415.3,286046997.9,N
1562166435.2,286046998.8,N
1562166455.9,286047000.6,N
1562166475.7,286047004.1,N
1562166495.6,286047008.2,N
1562166515.4,286047006.2,N
1562166535.2,286047007.0,N
1562166555.1,286047009.4,N
1562166556.0,286047009.4,N
1562166575.8,286047013.7,N
1562166595.7,286047010.4,N
1562166615.5,286047007.7,N
1562166635.3,286047007.8,N
1562166655.2,286047015.0,N
1562166675.0,286047018.0,N
1562166675.9,286047018.0,N
1562166695.8,286047023.6,N
1562166715.6,286047020.7,N
1562166735.4,286047019.7,N
1562166755.3,286047012.9,N
1562166775.1,286047007.6,N
1562166795.8,286047005.0,N
1562166815.7,286047002.9,N
1562166835.5,286047008.7,N
1562166855.3,286047004.8,N
1562166875.2,286047005.7,N
1562166895.0,286047005.0,N
1562166895.9,286047005.0,N
1562166915.8,286047006.6,N
1562166935.6,286047005.2,N
1562166955.4,286047010.8,N
1562166975.3,286047018.2,Y
1562166995.1,286047009.2,P
1562167015.9,286047007.1,P
1562167035.7,286047004.5,P
1562167055.5,286047006.5,Y
1562167075.4,286046999.1,P
1562167095.2,286047003.4,N
1562167115.1,286047009.2,N
1562167116.0,286047009.2,N
1562167135.8,286047008.3,N
1562167155.6,286047005.8,N
1562167175.5,286047012.9,Y
1562167195.3,286047015.6,P
1562167215.1,286047017.6,P
1562167235.9,286047010.9,N
1562167255.7,286047008.3,N
1562167275.6,286047005.7,N
1562167295.4,286047006.0,N
1562167315.2,286047013.4,N
1562167335.1,286047018.4,Y
1562167336.0,286047018.4,P
1562167355.8,286047011.9,N
1562167375.6,286047004.7,N
1562167395.5,286047002.5,N
1562167415.3,286047003.4,N
1562167435.2,286047002.8,N
1562167455.9,286047000.1,N
1562167475.7,286047000.8,N
1562167495.6,286046996.5,N
1562167515.4,286046994.3,N
1562167535.3,286046993.5,N
1562167555.1,286046994.2,N
1562167556.0,286046994.2,N
1562167575.8,286046994.3,N
1562167595.7,286046995.1,N
1562167615.5,286047001.0,N
1562167635.3,286047003.8,N
1562167655.2,286047007.2,N
1562167675.0,286047007.6,N
1562167675.9,286047007.6,N
1562167695.8,286047007.3,N
1562167715.6,286047008.0,N
1562167735.4,286047006.5,N
1562167755.3,286047008.4,N
1562167775.1,286047004.9,N
1562167795.8,286047005.0,N
1562167815.7,286047007.3,N
1562167835.5,286047008.7,N
1562167855.4,286047016.2,N
1562167875.2,286047023.7,Y
1562167895.0,286047025.1,P
1562167895.9,286047025.1,N
1562167915.8,286047029.8,N
1562167935.6,286047029.7,N
1562167955.5,286047032.6,Y
1562167975.3,286047010.2,P
1562167995.1,286047010.1,N
1562168015.9,286047008.6,N
1562168035.7,286047007.7,N
1562168055.5,286047008.0,N
1562168075.4,286047007.8,N
1562168095.2,286047011.8,N
1562168115.1,286047012.4,N
1562168116.0,286047012.4,N
1562168135.8,286047009.3,N
1562168155.6,286047012.3,Y
1562168175.5,286047002.7,P
1562168195.3,286047001.6,N
1562168215.1,286047001.4,N
1562168235.9,286047002.9,N
1562168255.7,286047004.1,N
1562168275.6,286047000.2,N
1562168295.4,286046990.8,N
1562168315.2,286046991.6,N
1562168335.1,286046990.1,N
1562168336.0,286046990.1,N
1562168355.8,286046990.5,N
1562168375.6,286046991.3,N
1562168395.5,286046988.6,N
1562168415.3,286046989.9,N
1562168435.2,286046985.5,N
1562168455.9,286046984.7,N
1562168475.7,286046982.6,N
1562168495.6,286046974.3,Y
1562168515.4,286046975.4,P
1562168535.3,286046970.3,P
1562168555.1,286046965.5,P
1562168556.0,286046965.5,Y
1562168575.8,286046987.3,P
1562168595.7,286046987.5,N
1562168615.5,286046988.4,N
1562168635.3,286046986.7,N
1562168655.2,286046986.4,Y
1562168675.0,286046997.7,P
1562168675.9,286046997.7,N
1562168695.8,286046997.8,N
1562168715.6,286047000.5,N
1562168735.4,286047001.1,N
1562168755.3,286046996.9,N
1562168775.1,286047004.0,N
1562168795.8,286047001.3,N
1562168815.7,286047000.1,N
1562168835.5,286046998.3,N
1562168855.4,286046998.2,N
1562168875.2,286047001.9,N
1562168895.0,286047002.0,N
1562168895.9,286047002.0,N
1562168915.8,286047000.9,N
1562168935.6,286047001.3,N
1562168955.5,286047007.8,N
1562168975.3,286047015.8,Y
1562168995.1,286047019.4,P
1562169015.9,286047024.7,N
1562169035.7,286047024.7,N
1562169055.5,286047019.3,N
1562169075.4,286047019.3,N
1562169095.2,286047017.2,N
1562169115.1,286047012.8,N
1562169116.0,286047012.8,N
1562169135.8,286047011.4,N
1562169155.6,286047007.6,N
1562169175.5,286047005.0,N
1562169195.3,286047005.7,N
1562169215.2,286047004.4,N
1562169235.9,286047003.8,N
1562169255.7,286047006.4,N
1562169275.6,286047007.5,N
1562169295.4,286047006.8,N
1562169315.2,286047008.6,N
1562169335.1,286047008.1,N
1562169336.0,286047008.1,N
1562169355.8,286047010.3,N
1562169375.7,286047011.1,N
1562169395.5,286047011.4,N
1562169415.3,286047011.8,N
1562169435.2,286047013.4,N
1562169455.0,286047019.0,Y
1562169455.9,286047019.0,P
1562169475.8,286047007.9,N
1562169495.6,286047011.2,N
1562169515.4,286047012.4,Y
1562169535.3,286047000.7,P
1562169555.1,286046999.6,N
1562169575.8,286046999.3,N
1562169595.7,286047002.2,N
